Nantucket, MA

2:46 AM EST on February 23, 2017 (GMT -0500)
Nantucket Memorial

Weather History for KACK - April, 2013

Change the Weather History Date:

Tuesday, April 2, 2013

  Actual Average Record
Temperature  
Mean Temperature 42 °F -  
Max Temperature 51 °F 51 °F 69 °F (1967)
Min Temperature 33 °F 34 °F 25 °F (2015)
Degree Days  
Heating Degree Days 23    
Moisture  
Dew Point 16 °F    
Average Humidity 37    
Maximum Humidity 48    
Minimum Humidity 20    
Precipitation  
Precipitation 0.00 in - - ()
Sea Level Pressure  
Sea Level Pressure 29.90 in    
Wind  
Wind Speed 18 mph (West)    
Max Wind Speed 26 mph    
Max Gust Speed 38 mph    
Visibility 10 miles    
Events      
Averages and records for this station are not official NWS values.
T = Trace of Precipitation, MM = Missing Value Source: NWS Daily Summary

Daily Weather History Graph

Daily Weather History Graph

Search for Another Location

Airport or City:

Trip Planner

Search our weather history database for the weather conditions in past years. The results will help you decide how hot, cold, wet, or windy it might be!

Date:

Astronomy

Apr. 02, 2013 Rise Set
Actual Time 6:21 AM EDT 7:06 PM EDT
Civil Twilight 5:53 AM EDT 7:34 PM EDT
Nautical Twilight 5:20 AM EDT 8:07 PM EDT
Astronomical Twilight 4:46 AM EDT 8:42 PM EDT
Moon 1:10 AM EDT (4/2) 11:06 AM EDT (4/2)
Length of Visible Light 13h 41m
Length of Day
12h 45m
Waning Gibbous, 56% of the Moon is Illuminated
Apr 2
Waning Gibbous
Apr 3
Last Quarter
Apr 10
New
Apr 18
First Quarter
Apr 25
Full

Hourly Weather History & Observations

Time (EDT) Temp. Windchill Dew Point Humidity Pressure Visibility Wind Dir Wind Speed Gust Speed Precip Events Conditions
12:53 AM 37.9 °F 28.9 °F 17.1 °F 43% 29.81 in 10.0 mi NW 16.1 mph 25.3 mph N/A   Clear
1:53 AM 37.0 °F 27.0 °F 16.0 °F 42% 29.83 in 10.0 mi NW 18.4 mph 23.0 mph N/A   Clear
2:53 AM 36.0 °F 25.6 °F 14.0 °F 41% 29.83 in 10.0 mi NW 18.4 mph 26.5 mph N/A   Clear
3:53 AM 35.1 °F 25.5 °F 14.0 °F 42% 29.86 in 10.0 mi NW 15.0 mph 27.6 mph N/A   Clear
4:53 AM 34.0 °F 24.6 °F 12.9 °F 42% 29.87 in 10.0 mi WNW 13.8 mph 23.0 mph N/A   Clear
5:53 AM 34.0 °F 24.2 °F 12.9 °F 42% 29.88 in 10.0 mi NW 15.0 mph 24.2 mph N/A   Clear
6:53 AM 33.1 °F 24.4 °F 15.1 °F 48% 29.91 in 10.0 mi West 11.5 mph - N/A   Clear
7:53 AM 35.1 °F 24.8 °F 15.1 °F 44% 29.93 in 10.0 mi West 17.3 mph - N/A   Clear
8:53 AM 37.4 °F 28.2 °F 17.1 °F 44% 29.93 in 10.0 mi West 16.1 mph 20.7 mph N/A   Clear
9:53 AM 48.9 °F - 17.1 °F 28% 29.92 in 10.0 mi West 18.4 mph 27.6 mph N/A   Scattered Clouds
10:53 AM 39.2 °F 28.7 °F 15.1 °F 37% 29.92 in 10.0 mi West 23.0 mph 28.8 mph N/A   Mostly Cloudy
11:53 AM 41.0 °F 30.7 °F 18.0 °F 40% 29.91 in 10.0 mi West 25.3 mph 32.2 mph N/A   Mostly Cloudy
12:53 PM 50.0 °F - 18.0 °F 28% 29.90 in 10.0 mi WSW 23.0 mph 35.7 mph N/A   Partly Cloudy
1:53 PM 41.0 °F 30.5 °F 19.0 °F 41% 29.89 in 10.0 mi West 26.5 mph 33.4 mph N/A   Clear
2:53 PM 41.0 °F 30.7 °F 18.0 °F 40% 29.88 in 10.0 mi West 25.3 mph 34.5 mph N/A   Partly Cloudy
3:53 PM 41.0 °F 30.7 °F 16.0 °F 36% 29.87 in 10.0 mi West 25.3 mph 38.0 mph N/A   Clear
4:53 PM 41.0 °F 30.7 °F 17.1 °F 38% 29.87 in 10.0 mi WSW 25.3 mph 36.8 mph N/A   Clear
5:53 PM 39.2 °F 28.7 °F 19.0 °F 44% 29.89 in 10.0 mi WSW 23.0 mph 35.7 mph N/A   Clear
6:53 PM 48.0 °F - 18.0 °F 30% 29.91 in 10.0 mi West 24.2 mph 32.2 mph N/A   Clear
7:53 PM 37.4 °F 27.8 °F 18.0 °F 45% 29.93 in 10.0 mi WNW 17.3 mph 24.2 mph N/A   Scattered Clouds
8:53 PM 51.1 °F - 10.9 °F 20% 29.96 in 10.0 mi WNW 12.7 mph - N/A   Clear
9:53 PM 51.1 °F - 12.0 °F 21% 29.98 in 10.0 mi WNW 13.8 mph 19.6 mph N/A   Clear
10:53 PM 50.0 °F - 12.0 °F 22% 29.99 in 10.0 mi WNW 11.5 mph - N/A   Clear
11:53 PM 50.0 °F - 12.9 °F 23% 29.99 in 10.0 mi WNW 10.4 mph - N/A   Clear